FENGYUN 1C DEB, 36203

Orbit data source: Space-Track

FENGYUN 1C DEB, 36203 is space debris in SSO originally from a launch on Mon, 10 May 1999 UTC launched from the Taiyaun Space Center, China (TSC). Fengyun 1C debris stems from the Chinese weather satellite Fengyun-1C, which was intentionally destroyed by a Chinese anti-satellite missile in 2007. This event dramatically increased the amount of space debris, with thousands of trackable fragments posing hazards to satellites and human spaceflight. The Fengyun 1C debris cloud has become a focal point in discussions about space sustainability and the need for international regulations to prevent the creation of new debris.

Loading next visibility...
Identifier
36203, 1999-025DUC
Orbit
SSO
Country
Flag of CNCN / PRC
Related business
Manufacturer
Unknown
Mission
Spacecraft
Bus & Motor
Unknown
Mass
Unknown
Launch date (UTC)
1999-05-10 (27 years ago)
Launch vehicle
Unknown
Launch site
Taiyaun Space Center, China (TSC)
Object type
Payload
Rocket body
Debris
Shape & HBR
Unknown shape, 0.1 m
Radar Cross Section
Small (<0.1 m²)

Expand to show TLE details & history
Last TLE update: 1 month ago

TLE from 1 month ago
0 FENGYUN 1C DEB
1 36203U 99025DUC 26227.69355142  .00005041  00000-0  59474-3 0  9995
2 36203  99.1168 209.7509 0078091  96.7992 264.2111 14.83092400670695
Epoch: 2026-08-15T16:38Z
TLE epoch observation values (Epoch: 2026-08-15T16:38:42.842Z)
Latitude
-0.00004°
Longitude
-4.02836°
Altitude
628.502 km
Speed
7.541 km/s
True Right ascension
13h 59m 00s
True Declination
0° 00' 00"
Sunlit
Object was in daylight at epoch
Visualization orbit readout
Latitude
Unknown
Longitude
Unknown
Altitude
Unknown
Speed
Unknown
Apparent Right ascension
Unknown
Apparent Declination
Unknown
Sunlit
N/A
Visualization observer readout
Local Sidereal Time
07:39:37
Azimuth
Unknown
Elevation
Unknown
Doppler factor
Unknown
Orbital elements
Apogee altitude
671.298 km
Perigee altitude
562.052 km
Semi-major axis
6,994.812 km
Eccentricity
0.00781
Inclination
99.1168°
RAAN
209.7509°
Arg. of periapsis
96.7992°
True anomaly
263.32172°
Mean anomaly
264.2111°
Eccentric anomaly
263.76632°
Mean motion
3.71004 °/min
Orbital period
97.03 mins
BSTAR
0.00059474
Loading maneuver chart data...
Computing Atmospheric mass density...
Loading historical data...
Loading historical data...
Loading historical data...
Loading historical data...
Loading historical data...
Loading historical data...
Loading historical data...

Documentation

Showing up to 5 results
|